Weather History for O'Neill, NE

Change the Weather History Date:

Wednesday, June 12, 2013

  Actual Average Record
Temperature  
Mean Temperature 68 °F -  
Max Temperature 83 °F 81 °F 99 °F (1990)
Min Temperature 55 °F 54 °F 43 °F (1969)
Cooling Degree Days 3    
Growing Degree Days 18 (Base 50)    
Moisture  
Dew Point 57 °F    
Average Humidity 69    
Maximum Humidity 88    
Minimum Humidity 45    
Precipitation  
Precipitation 0.06 in - - ()
Sea Level Pressure  
Sea Level Pressure 29.94 in    
Wind  
Wind Speed 16 mph (NNW)    
Max Wind Speed 28 mph    
Max Gust Speed 34 mph    
Visibility 10 miles    
Events Rain , Thunderstorm    
Averages and records for this station are not official NWS values.
T = Trace of Precipitation, MM = Missing Value Source: NWS Daily Summary

Daily Weather History Graph

Daily Weather History Graph

Search for Another Location

Airport:

Trip Planner

Search our weather history database for the weather conditions in past years. The results will help you decide how hot, cold, wet, or windy it might be!

Date:

Astronomy

Jun. 12, 2013 Rise Set
Actual Time 5:56 AM CDT 9:12 PM CDT
Civil Twilight 5:22 AM CDT 9:47 PM CDT
Nautical Twilight 4:37 AM CDT 10:32 PM CDT
Astronomical Twilight 3:42 AM CDT 11:26 PM CDT
Moon 9:41 AM CDT (6/12) 11:44 PM CDT (6/12)
Length of Visible Light 16h 25m
Length of Day
15h 15m
Waxing Crescent, 14% of the Moon is Illuminated
Jun 12
Waxing Crescent
Jun 16
First Quarter
Jun 23
Full
Jun 29
Last Quarter
Jul 8
New

Hourly Weather History & Observations

Time (CDT) Temp. Heat Index Dew Point Humidity Pressure Visibility Wind Dir Wind Speed Gust Speed Precip Events Conditions
12:15 AM 75.2 °F - 68.2 °F 79% 29.82 in 7.0 mi ESE 15.0 mph 23.0 mph 0.03 in Rain , Thunderstorm Heavy Thunderstorms and Rain
12:35 AM 76.1 °F - 63.7 °F 65% 29.70 in 10.0 mi East 27.6 mph 34.5 mph 0.06 in Rain Light Rain
12:55 AM 75.4 °F - 64.2 °F 68% 29.66 in 10.0 mi ENE 13.8 mph 28.8 mph 0.06 in   Scattered Clouds
1:15 AM 81.5 °F 81.6 °F 58.5 °F 45% 29.68 in 10.0 mi SE 12.7 mph 21.9 mph N/A Rain Light Rain
1:35 AM 73.6 °F - 64.0 °F 72% 29.67 in 10.0 mi SE 16.1 mph 33.4 mph N/A Rain , Thunderstorm Light Thunderstorms and Rain
1:55 AM 72.5 °F - 64.9 °F 77% 29.69 in 10.0 mi SE 15.0 mph 24.2 mph N/A   Clear
2:15 AM 73.6 °F - 62.1 °F 67% 29.69 in 10.0 mi ESE 18.4 mph 23.0 mph N/A   Scattered Clouds
2:35 AM 72.1 °F - 61.7 °F 70% 29.67 in 10.0 mi ESE 15.0 mph - N/A   Scattered Clouds
2:55 AM 72.9 °F - 62.4 °F 70% 29.69 in 10.0 mi ENE 3.5 mph 10.4 mph N/A   Clear
3:15 AM 74.3 °F - 61.0 °F 63% 29.76 in 10.0 mi West 13.8 mph 25.3 mph N/A   Clear
3:35 AM 71.8 °F - 64.9 °F 79% 29.78 in 10.0 mi NW 12.7 mph - N/A   Clear
3:55 AM 69.8 °F - 64.2 °F 82% 29.80 in 10.0 mi NW 12.7 mph - N/A   Clear
4:15 AM 68.2 °F - 62.4 °F 82% 29.81 in 10.0 mi NNW 17.3 mph 23.0 mph N/A   Clear
4:35 AM 67.1 °F - 60.8 °F 80% 29.82 in 10.0 mi NNW 19.6 mph - N/A   Clear
4:55 AM 66.0 °F - 59.5 °F 80% 29.83 in 10.0 mi NNW 20.7 mph 27.6 mph N/A   Clear
5:15 AM 65.5 °F - 58.5 °F 78% 29.82 in 10.0 mi North 16.1 mph - N/A   Clear
5:35 AM 65.3 °F - 58.1 °F 77% 29.82 in 10.0 mi North 16.1 mph 20.7 mph N/A   Clear
5:55 AM 64.9 °F - 57.6 °F 77% 29.83 in 10.0 mi North 16.1 mph 23.0 mph N/A   Clear
6:15 AM 65.8 °F - 57.2 °F 74% 29.83 in 10.0 mi NNE 11.5 mph 19.6 mph N/A   Mostly Cloudy
6:35 AM 65.3 °F - 57.2 °F 75% 29.84 in 10.0 mi North 10.4 mph - N/A   Scattered Clouds
6:55 AM 64.8 °F - 57.6 °F 77% 29.85 in 10.0 mi NNW 8.1 mph - N/A   Clear
7:15 AM 65.7 °F - 57.6 °F 75% 29.85 in 10.0 mi NNW 9.2 mph - N/A   Clear
7:35 AM 66.4 °F - 57.7 °F 74% 29.86 in 10.0 mi NNW 10.4 mph - N/A   Clear
7:55 AM 67.3 °F - 57.7 °F 71% 29.88 in 10.0 mi NNW 12.7 mph 18.4 mph N/A   Clear
8:15 AM 68.2 °F - 57.9 °F 70% 29.88 in 10.0 mi NNW 11.5 mph 16.1 mph N/A   Clear
8:35 AM 68.9 °F - 58.1 °F 68% 29.88 in 10.0 mi NNW 11.5 mph 17.3 mph N/A   Clear
8:55 AM 69.3 °F - 57.9 °F 67% 29.88 in 10.0 mi NNW 10.4 mph 17.3 mph N/A   Clear
9:15 AM 69.8 °F - 58.5 °F 67% 29.89 in 10.0 mi NW 12.7 mph 19.6 mph N/A   Clear
9:35 AM 69.8 °F - 58.6 °F 68% 29.90 in 10.0 mi NW 18.4 mph 21.9 mph N/A   Clear
9:55 AM 70.2 °F - 58.5 °F 66% 29.91 in 10.0 mi NNW 17.3 mph 23.0 mph N/A   Clear
10:15 AM 70.3 °F - 59.9 °F 69% 29.92 in 10.0 mi NW 18.4 mph 23.0 mph N/A   Scattered Clouds
10:35 AM 67.8 °F - 58.8 °F 73% 29.93 in 10.0 mi NW 18.4 mph 21.9 mph N/A   Scattered Clouds
10:55 AM 66.4 °F - 57.9 °F 74% 29.94 in 10.0 mi NW 18.4 mph 24.2 mph N/A   Scattered Clouds
11:15 AM 68.5 °F - 58.5 °F 70% 29.95 in 10.0 mi NW 17.3 mph 23.0 mph N/A   Scattered Clouds
11:35 AM 69.3 °F - 58.5 °F 68% 29.96 in 10.0 mi NW 17.3 mph 24.2 mph N/A   Clear
11:55 AM 70.3 °F - 57.7 °F 64% 29.97 in 10.0 mi WNW 18.4 mph 25.3 mph N/A   Clear
12:15 PM 70.3 °F - 56.8 °F 62% 29.97 in 10.0 mi NW 16.1 mph 24.2 mph N/A   Clear
12:35 PM 71.2 °F - 56.8 °F 60% 29.98 in 10.0 mi WNW 17.3 mph 24.2 mph N/A   Clear
12:55 PM 72.0 °F - 57.4 °F 60% 29.98 in 10.0 mi NNW 19.6 mph 25.3 mph N/A   Clear
1:15 PM 72.5 °F - 55.9 °F 56% 29.98 in 10.0 mi NW 19.6 mph 26.5 mph N/A   Clear
1:35 PM 71.2 °F - 55.0 °F 56% 29.99 in 10.0 mi NW 18.4 mph 27.6 mph N/A   Mostly Cloudy
1:55 PM 71.8 °F - 55.2 °F 56% 30.00 in 10.0 mi NNW 20.7 mph 31.1 mph N/A   Mostly Cloudy
2:15 PM 71.6 °F - 54.9 °F 55% 30.00 in 10.0 mi NW 23.0 mph 34.5 mph N/A   Scattered Clouds
2:35 PM 70.7 °F - 54.7 °F 57% 30.01 in 10.0 mi NW 24.2 mph 31.1 mph N/A   Scattered Clouds
2:55 PM 68.7 °F - 54.1 °F 60% 30.02 in 10.0 mi NW 25.3 mph 32.2 mph N/A   Mostly Cloudy
3:15 PM 67.8 °F - 53.4 °F 60% 30.02 in 10.0 mi NNW 23.0 mph 28.8 mph N/A   Overcast
3:35 PM 67.5 °F - 53.4 °F 61% 30.02 in 10.0 mi NNW 18.4 mph 27.6 mph N/A   Overcast
3:55 PM 68.4 °F - 52.0 °F 56% 30.02 in 10.0 mi NW 19.6 mph 33.4 mph N/A   Mostly Cloudy
4:15 PM 69.3 °F - 52.5 °F 55% 30.03 in 10.0 mi NW 26.5 mph 32.2 mph N/A   Mostly Cloudy
4:35 PM 69.4 °F - 52.5 °F 55% 30.03 in 10.0 mi NW 24.2 mph 31.1 mph N/A   Overcast
4:55 PM 69.4 °F - 51.4 °F 53% 30.03 in 10.0 mi NNW 26.5 mph 32.2 mph N/A   Mostly Cloudy
5:15 PM 69.3 °F - 51.4 °F 53% 30.04 in 10.0 mi NNW 25.3 mph 31.1 mph N/A   Mostly Cloudy
5:35 PM 69.8 °F - 52.5 °F 54% 30.04 in 10.0 mi NNW 21.9 mph 28.8 mph N/A   Overcast
5:55 PM 68.7 °F - 52.9 °F 57% 30.04 in 10.0 mi North 19.6 mph 28.8 mph N/A   Overcast
6:15 PM 66.9 °F - 52.3 °F 59% 30.05 in 10.0 mi NNW 23.0 mph 29.9 mph N/A   Mostly Cloudy
6:35 PM 65.7 °F - 52.9 °F 63% 30.05 in 10.0 mi NNW 18.4 mph 27.6 mph N/A   Overcast
6:55 PM 64.2 °F - 53.2 °F 67% 30.06 in 10.0 mi NNW 19.6 mph 27.6 mph N/A   Overcast
7:15 PM 63.3 °F - 53.8 °F 71% 30.07 in 10.0 mi North 15.0 mph 27.6 mph N/A   Mostly Cloudy
7:35 PM 63.9 °F - 53.4 °F 69% 30.08 in 10.0 mi NNW 16.1 mph 20.7 mph N/A   Scattered Clouds
7:55 PM 63.5 °F - 53.1 °F 69% 30.08 in 10.0 mi NNW 12.7 mph 19.6 mph N/A   Scattered Clouds
8:15 PM 63.0 °F - 52.3 °F 68% 30.09 in 10.0 mi North 11.5 mph - N/A   Clear
8:35 PM 62.1 °F - 52.5 °F 71% 30.10 in 10.0 mi North 12.7 mph 18.4 mph N/A   Clear
8:55 PM 61.3 °F - 52.2 °F 72% 30.10 in 10.0 mi North 9.2 mph - N/A   Clear
9:15 PM 60.1 °F - 52.3 °F 76% 30.11 in 10.0 mi North 5.8 mph - N/A   Clear
9:35 PM 59.0 °F - 52.3 °F 79% 30.11 in 10.0 mi North 3.5 mph - N/A   Clear
9:55 PM 58.8 °F - 52.2 °F 79% 30.11 in 10.0 mi Calm Calm - N/A   Clear
10:15 PM 58.3 °F - 52.3 °F 81% 30.11 in 10.0 mi Calm Calm - N/A   Clear
10:35 PM 56.7 °F - 52.2 °F 85% 30.12 in 10.0 mi Calm Calm - N/A   Clear
10:55 PM 56.3 °F - 52.7 °F 88% 30.14 in 10.0 mi West 4.6 mph - N/A   Clear
11:15 PM 55.9 °F - 51.8 °F 86% 30.14 in 10.0 mi West 4.6 mph - N/A   Clear
11:35 PM 55.6 °F - 51.8 °F 87% 30.14 in 10.0 mi West 4.6 mph - N/A   Clear
11:55 PM 55.4 °F - 51.4 °F 87% 30.14 in 10.0 mi WNW 4.6 mph - N/A   Clear